Flight Track Log - Related Links

Times and Time Zones

All times are in EDT time to prevent confusion due to time zone crossing. See the UAL822 flight status page for this flight to view local times or setup timezone preferences in your user account.

Time Position Orientation Groundspeed Altitude Reporting Facility
EDT Latitude Longitude Course Direction KTS MPH feet Rate Location/Type
Wed 02:42:28 PM 41.9500 -87.9000 95° East 173 199 1,700  Level Chicago TRACON
Wed 02:43:28 PM 41.9167 -87.8500 132° Southeast 195 224 4,300 1,737 Climbing Chicago TRACON
Wed 02:44:22 PM 41.8833 -87.7833 124° Southeast 263 303 5,000 550 Climbing Chicago TRACON
Wed 02:45:00 PM 41.9593 -87.4684 97° East  Level FlightAware Approximate
Wed 02:45:28 PM 41.8833 -87.6667 90° East 263 303 5,400  Level Chicago TRACON
Wed 02:46:00 PM 41.9471 -87.3253 95° East  Level FlightAware Approximate
Wed 02:46:28 PM 41.8667 -87.5833 105° East 277 319 5,900  Level Chicago TRACON
Wed 02:47:00 PM 41.9369 -87.1820 95° East  Level FlightAware Approximate
Wed 02:47:22 PM 41.9167 -87.5000 51° Northeast 291 335 7,400  Level Chicago TRACON
Wed 02:48:28 PM 41.9333 -87.3667 80° East 302 348 11,100 2,916 Climbing Chicago TRACON
Wed 02:49:09 PM 41.9369 -87.3233 84° East 303 349 12,600 2,214 Climbing Chicago Center
Wed 02:50:11 PM 41.9414 -87.1828 88° East 315 362 14,900 1,161 Climbing Chicago Center
Wed 02:51:13 PM 41.9456 -87.0611 87° East 326 375 15,000 1,403 Climbing Chicago Center
Wed 02:52:15 PM 41.9481 -86.9422 88° East 322 371 17,800 2,177 Climbing Chicago Center
Wed 02:53:17 PM 41.9497 -86.8158 89° East 332 382 19,500 2,032 Climbing Chicago Center
Wed 02:54:19 PM 41.9519 -86.6747 89° East 374 430 22,000 2,516 Climbing Chicago Center
Wed 02:55:21 PM 41.9528 -86.5011 90° East 385 443 24,700 2,208 Climbing Chicago Center
Wed 02:56:24 PM 41.9544 -86.3525 89° East 393 452 26,600 1,776 Climbing Chicago Center
Wed 02:57:26 PM 41.9528 -86.1989 91° East 406 467 28,400 1,694 Climbing Chicago Center
Wed 02:58:28 PM 41.9231 -86.0481 105° East 420 483 30,100 1,536 Climbing Chicago Center
Wed 02:59:31 PM 41.8922 -85.8947 105° East 425 489 31,600 1,694 Climbing Chicago Center
Wed 03:00:32 PM 41.8617 -85.7400 105° East 428 493 33,600 1,805 Climbing Chicago Center
Wed 03:01:34 PM 41.8322 -85.5889 105° East 419 482 35,300 1,645 Climbing Chicago Center
Wed 03:02:36 PM 41.7967 -85.4058 105° East 416 479 37,000 823 Climbing Chicago Center
Wed 03:03:38 PM 41.7656 -85.2519 105° East 424 488 37,000  Level Chicago Center
Wed 03:04:40 PM 41.7333 -85.0989 106° East 428 493 37,000  Level Chicago Center
Wed 03:05:33 PM 41.7092 -84.9728 104° East 416 479 37,000  Level Cleveland Center
Wed 03:06:33 PM 41.6772 -84.8206 106° East 416 479 37,000  Level Cleveland Center
Wed 03:07:33 PM 41.6619 -84.6694 98° East 416 479 37,000  Level Cleveland Center
Wed 03:08:33 PM 41.6547 -84.5133 93° East 416 479 37,000  Level Cleveland Center
Wed 03:09:34 PM 41.6497 -84.3572 92° East 416 479 37,000  Level Cleveland Center
Wed 03:10:34 PM 41.6319 -84.1922 98° East 411 473 37,000  Level Cleveland Center
Wed 03:11:33 PM 41.5758 -84.0558 119° Southeast 397 457 37,000  Level Cleveland Center
Wed 03:12:33 PM 41.5131 -83.9247 123° Southeast 408 470 37,000  Level Cleveland Center
Wed 03:13:34 PM 41.4522 -83.7942 122° Southeast 415 478 37,000  Level Cleveland Center
Wed 03:14:33 PM 41.3911 -83.6639 122° Southeast 420 483 37,000  Level Cleveland Center
Wed 03:15:34 PM 41.3319 -83.5311 121° Southeast 420 483 37,000  Level Cleveland Center
Wed 03:16:34 PM 41.2708 -83.3983 121° Southeast 420 483 37,000  Level Cleveland Center
Wed 03:17:33 PM 41.2072 -83.2631 122° Southeast 420 483 37,000  Level Cleveland Center
Wed 03:18:33 PM 41.1556 -83.1481 121° Southeast 414 476 37,000  Level Cleveland Center
Wed 03:19:33 PM 41.0942 -83.0106 121° Southeast 419 482 37,000  Level Cleveland Center
Wed 03:20:34 PM 41.0322 -82.8789 122° Southeast 419 482 37,000  Level Cleveland Center
Wed 03:21:33 PM 40.9722 -82.7475 121° Southeast 419 482 37,000  Level Cleveland Center
Wed 03:23:27 PM 40.8586 -82.5033 122° Southeast 423 487 37,000  Level Indianapolis Center
Wed 03:24:22 PM 40.7911 -82.3686 123° Southeast 429 494 37,000  Level Cleveland Center
Wed 03:25:22 PM 40.7286 -82.2353 122° Southeast 424 488 37,000  Level Cleveland Center
Wed 03:26:22 PM 40.6658 -82.1022 122° Southeast 419 482 37,000  Level Cleveland Center
Wed 03:27:22 PM 40.6028 -81.9722 123° Southeast 424 488 37,000  Level Cleveland Center
Wed 03:28:22 PM 40.5417 -81.8400 121° Southeast 419 482 37,000  Level Cleveland Center
Wed 03:29:22 PM 40.4764 -81.7103 123° Southeast 419 482 37,000  Level Cleveland Center
Wed 03:30:22 PM 40.4131 -81.5783 122° Southeast 419 482 37,000  Level Cleveland Center
Wed 03:31:22 PM 40.3514 -81.4494 122° Southeast 419 482 37,000 -150 Level Cleveland Center
Wed 03:32:22 PM 40.2900 -81.3181 121° Southeast 419 482 36,700 -800 Descending Cleveland Center
Wed 03:33:22 PM 40.2281 -81.1894 122° Southeast 419 482 35,400 -1,200 Descending Cleveland Center
Wed 03:34:22 PM 40.1642 -81.0611 123° Southeast 419 482 34,300 -1,050 Descending Cleveland Center
Wed 03:35:22 PM 40.1019 -80.9306 122° Southeast 419 482 33,300 -650 Descending Cleveland Center
Wed 03:36:22 PM 40.0378 -80.8028 123° Southeast 419 482 33,000 -150 Descending Cleveland Center
Wed 03:37:22 PM 39.9753 -80.6778 123° Southeast 419 482 33,000  Level Cleveland Center
Wed 03:38:22 PM 39.9169 -80.5369 118° Southeast 424 488 33,000  Level Cleveland Center
Wed 03:39:22 PM 39.8564 -80.3939 119° Southeast 435 501 33,000  Level Cleveland Center
Wed 03:40:22 PM 39.7997 -80.2481 117° Southeast 442 509 33,000  Level Cleveland Center
Wed 03:41:22 PM 39.7411 -80.1053 118° Southeast 447 514 33,000 -545 Level Cleveland Center
Wed 03:43:40 PM 39.6131 -79.7992 118° Southeast 459 528 31,200 -1,182 Descending Washington Center
Wed 03:44:40 PM 39.5553 -79.6614 119° Southeast 448 516 29,100 -1,966 Descending Washington Center
Wed 03:45:39 PM 39.5186 -79.5167 108° East 435 501 27,300 -1,714 Descending Washington Center
Wed 03:46:39 PM 39.4900 -79.3672 104° East 428 493 25,700 -1,636 Descending Washington Center
Wed 03:47:40 PM 39.4592 -79.2122 104° East 422 486 24,000 -1,377 Descending Washington Center
Wed 03:48:41 PM 39.4303 -79.0683 105° East 408 470 22,900 -1,563 Descending Washington Center
Wed 03:49:39 PM 39.4028 -78.9356 105° East 398 458 20,900 -1,966 Descending Washington Center
Wed 03:50:40 PM 39.3789 -78.8108 104° East 376 433 19,000 -1,714 Descending Washington Center
Wed 03:51:38 PM 39.3550 -78.6917 104° East 358 412 17,500 -1,831 Descending Washington Center
Wed 03:52:38 PM 39.3308 -78.5753 105° East 345 397 15,400 -1,934 Descending Washington Center
Wed 03:53:39 PM 39.3086 -78.4617 104° East 334 384 13,600 -1,574 Descending Washington Center
Wed 03:54:40 PM 39.2878 -78.3725 107° East 334 384 12,200 -1,513 Descending Washington Center
Wed 03:55:38 PM 39.2319 -78.2578 122° Southeast 318 366 10,600 -1,271 Descending Washington Center
Wed 03:56:38 PM 39.1900 -78.1731 123° Southeast 302 348 9,700 -1,091 Descending Washington Center
Wed 03:57:39 PM 39.1564 -78.0864 117° Southeast 282 325 8,400 -1,289 Descending Washington Center
Wed 03:58:39 PM 39.1206 -78.0022 119° Southeast 270 311 7,100 -1,350 Descending Washington Center
Wed 03:59:39 PM 39.0867 -77.9236 119° Southeast 270 311 5,700 -1,190 Descending Washington Center
Wed 04:00:40 PM 39.0547 -77.8503 119° Southeast 257 296 4,700 -595 Descending Washington Center
Wed 04:01:40 PM 39.0269 -77.7772 116° Southeast 228 262 4,500 -687 Descending Washington Center
Wed 04:04:01 PM 38.9833 -77.6167 109° East 181 208 2,400 -896 Descending Potomac TRACON
Wed 04:05:01 PM 38.9667 -77.5667 113° Southeast 152 175 1,500 -900 Descending Potomac TRACON

Login

Don't have an account? Register now (free) for customized features, flight alerts, and more!